TimePST,TemperatureF,Dew PointF,Humidity,Sea Level PressureIn,VisibilityMPH,Wind Direction,Wind SpeedMPH,Gust SpeedMPH,PrecipitationIn,Events,Conditions,WindDirDegrees,DateUTC
12:10 AM,26.6,19.4,74,29.71,10.0,NNW,5.8,-,N/A,,Mostly Cloudy,330,2013-02-20 08:10:00
12:30 AM,26.6,19.4,74,29.72,10.0,NNW,11.5,-,N/A,,Scattered Clouds,340,2013-02-20 08:30:00
12:50 AM,26.6,19.4,74,29.73,10.0,NW,5.8,-,N/A,,Mostly Cloudy,310,2013-02-20 08:50:00
1:10 AM,24.8,19.4,80,29.74,10.0,NW,8.1,-,N/A,,Scattered Clouds,320,2013-02-20 09:10:00
1:35 AM,26.6,19.4,74,29.75,10.0,NW,8.1,-,N/A,,Overcast,320,2013-02-20 09:35:00
1:50 AM,26.6,19.4,74,29.75,10.0,NNW,8.1,-,N/A,,Overcast,330,2013-02-20 09:50:00
2:10 AM,24.8,19.4,80,29.75,10.0,North,10.4,-,N/A,,Scattered Clouds,360,2013-02-20 10:10:00
2:30 AM,26.6,19.4,74,29.76,10.0,NNW,11.5,-,N/A,,Scattered Clouds,340,2013-02-20 10:30:00
2:50 AM,24.8,19.4,80,29.77,10.0,NNW,9.2,-,N/A,,Partly Cloudy,340,2013-02-20 10:50:00
3:10 AM,26.6,19.4,74,29.77,10.0,NNW,13.8,20.7,N/A,,Clear,330,2013-02-20 11:10:00
3:30 AM,26.6,19.4,74,29.78,10.0,NNW,13.8,-,N/A,,Clear,340,2013-02-20 11:30:00
4:10 AM,24.8,19.4,80,29.79,10.0,NNW,8.1,-,N/A,,Clear,330,2013-02-20 12:10:00
4:30 AM,24.8,19.4,80,29.80,10.0,North,6.9,-,N/A,,Clear,10,2013-02-20 12:30:00
4:50 AM,24.8,17.6,74,29.81,10.0,North,8.1,-,N/A,,Clear,360,2013-02-20 12:50:00
5:10 AM,24.8,17.6,74,29.82,10.0,NNW,8.1,-,N/A,,Clear,340,2013-02-20 13:10:00
5:35 AM,23.0,17.6,80,29.83,10.0,NW,6.9,-,N/A,,Clear,310,2013-02-20 13:35:00
5:50 AM,23.0,15.8,74,29.83,10.0,NW,5.8,-,N/A,,Clear,320,2013-02-20 13:50:00
6:10 AM,23.0,17.6,80,29.84,10.0,NW,4.6,-,N/A,,Clear,310,2013-02-20 14:10:00
6:35 AM,24.8,17.6,74,29.85,10.0,West,6.9,-,N/A,,Clear,260,2013-02-20 14:35:00
6:55 AM,24.8,17.6,74,29.86,10.0,WNW,5.8,-,N/A,,Partly Cloudy,290,2013-02-20 14:55:00
7:30 AM,24.8,17.6,74,29.88,10.0,NW,5.8,-,N/A,,Mostly Cloudy,320,2013-02-20 15:30:00
7:50 AM,26.6,17.6,69,29.89,10.0,North,9.2,-,N/A,,Partly Cloudy,350,2013-02-20 15:50:00
8:10 AM,26.6,17.6,69,29.90,10.0,North,11.5,-,N/A,,Clear,360,2013-02-20 16:10:00
8:30 AM,28.4,17.6,64,29.90,10.0,North,15.0,-,N/A,,Clear,360,2013-02-20 16:30:00
8:50 AM,28.4,17.6,64,29.90,10.0,North,16.1,-,N/A,,Clear,350,2013-02-20 16:50:00
9:10 AM,30.2,17.6,60,29.91,10.0,North,16.1,-,N/A,,Clear,360,2013-02-20 17:10:00
9:30 AM,32.0,17.6,55,29.92,10.0,NNW,13.8,17.3,N/A,,Clear,340,2013-02-20 17:30:00
9:55 AM,32.0,17.6,55,29.93,10.0,North,9.2,-,N/A,,Clear,350,2013-02-20 17:55:00
10:15 AM,32.0,15.8,51,29.93,10.0,NNW,9.2,-,N/A,,Clear,330,2013-02-20 18:15:00
10:35 AM,32.0,15.8,51,29.93,10.0,North,6.9,-,N/A,,Clear,360,2013-02-20 18:35:00
10:55 AM,32.0,15.8,51,29.93,10.0,Calm,Calm,-,N/A,,Clear,0,2013-02-20 18:55:00
11:15 AM,32.0,14.0,48,29.92,10.0,Calm,Calm,-,N/A,,Partly Cloudy,0,2013-02-20 19:15:00
11:30 AM,33.8,14.0,44,29.92,10.0,Calm,Calm,-,N/A,,Partly Cloudy,0,2013-02-20 19:30:00
11:55 AM,33.8,14.0,44,29.92,10.0,North,5.8,-,N/A,,Scattered Clouds,10,2013-02-20 19:55:00
12:10 PM,35.6,14.0,41,29.92,10.0,NNW,3.5,-,N/A,,Partly Cloudy,330,2013-02-20 20:10:00
12:30 PM,35.6,14.0,41,29.91,10.0,NNW,3.5,-,N/A,,Clear,330,2013-02-20 20:30:00
12:50 PM,35.6,12.2,38,29.91,10.0,NNE,4.6,-,N/A,,Clear,20,2013-02-20 20:50:00
1:15 PM,37.4,14.0,38,29.91,10.0,Calm,Calm,-,N/A,,Clear,0,2013-02-20 21:15:00
1:30 PM,37.4,14.0,38,29.90,10.0,North,8.1,-,N/A,,Clear,350,2013-02-20 21:30:00
1:55 PM,37.4,12.2,36,29.89,10.0,Calm,Calm,-,N/A,,Clear,0,2013-02-20 21:55:00
2:15 PM,37.4,10.4,33,29.89,10.0,North,3.5,-,N/A,,Clear,360,2013-02-20 22:15:00
2:35 PM,37.4,10.4,33,29.88,10.0,NNW,10.4,-,N/A,,Clear,340,2013-02-20 22:35:00
2:55 PM,37.4,8.6,30,29.89,10.0,North,9.2,-,N/A,,Clear,10,2013-02-20 22:55:00
3:10 PM,37.4,10.4,33,29.89,10.0,NW,5.8,-,N/A,,Clear,320,2013-02-20 23:10:00
3:50 PM,37.4,12.2,36,29.89,10.0,North,10.4,-,N/A,,Clear,350,2013-02-20 23:50:00
4:10 PM,37.4,10.4,33,29.90,10.0,North,12.7,-,N/A,,Clear,360,2013-02-21 00:10:00
4:30 PM,37.4,10.4,33,29.90,10.0,North,13.8,-,N/A,,Clear,350,2013-02-21 00:30:00
4:50 PM,37.4,10.4,33,29.90,10.0,North,13.8,-,N/A,,Clear,360,2013-02-21 00:50:00
5:10 PM,35.6,10.4,35,29.91,10.0,North,12.7,16.1,N/A,,Clear,350,2013-02-21 01:10:00
5:30 PM,35.6,12.2,38,29.91,10.0,North,12.7,-,N/A,,Clear,350,2013-02-21 01:30:00
5:50 PM,32.0,12.2,44,29.91,10.0,NNE,9.2,-,N/A,,Clear,20,2013-02-21 01:50:00
6:10 PM,32.0,12.2,44,29.91,10.0,NNE,9.2,-,N/A,,Clear,20,2013-02-21 02:10:00
6:35 PM,30.2,12.2,47,29.92,10.0,North,5.8,-,N/A,,Clear,10,2013-02-21 02:35:00
6:55 PM,30.2,10.4,44,29.92,10.0,NNW,3.5,-,N/A,,Clear,330,2013-02-21 02:55:00
7:10 PM,30.2,10.4,44,29.92,10.0,Calm,Calm,-,N/A,,Clear,0,2013-02-21 03:10:00
7:30 PM,30.2,10.4,44,29.93,10.0,Calm,Calm,-,N/A,,Clear,0,2013-02-21 03:30:00
7:50 PM,28.4,10.4,47,29.93,10.0,NW,4.6,-,N/A,,Clear,310,2013-02-21 03:50:00
8:10 PM,28.4,10.4,47,29.94,10.0,NW,3.5,-,N/A,,Clear,320,2013-02-21 04:10:00
8:30 PM,28.4,10.4,47,29.94,10.0,Calm,Calm,-,N/A,,Clear,0,2013-02-21 04:30:00
8:50 PM,26.6,10.4,51,29.94,10.0,Calm,Calm,-,N/A,,Clear,0,2013-02-21 04:50:00
9:10 PM,26.6,10.4,51,29.94,10.0,North,4.6,-,N/A,,Clear,10,2013-02-21 05:10:00
9:30 PM,26.6,10.4,51,29.94,10.0,NNE,5.8,-,N/A,,Clear,30,2013-02-21 05:30:00
9:50 PM,23.0,10.4,59,29.96,10.0,North,8.1,-,N/A,,Clear,360,2013-02-21 05:50:00
10:10 PM,23.0,10.4,59,29.96,10.0,North,4.6,-,N/A,,Clear,360,2013-02-21 06:10:00
10:30 PM,26.6,10.4,51,29.95,10.0,Calm,Calm,-,N/A,,Mostly Cloudy,0,2013-02-21 06:30:00
10:50 PM,26.6,10.4,51,29.94,10.0,Calm,Calm,-,N/A,,Mostly Cloudy,0,2013-02-21 06:50:00
11:10 PM,24.8,12.2,59,29.94,10.0,North,5.8,-,N/A,,Partly Cloudy,10,2013-02-21 07:10:00
11:30 PM,23.0,12.2,63,29.93,10.0,North,6.9,-,N/A,,Clear,350,2013-02-21 07:30:00
11:50 PM,24.8,14.0,64,29.93,10.0,NNW,4.6,-,N/A,,Clear,330,2013-02-21 07:50:00